QPF
0.00 0.00 0.00 0.00 0.00 0.00 0.01 0.03 0.07 0.06 0.05 0.15 0.16 0.09 0.07 0.05 0.04 0.04 0.05 0.08 0.07 0.03 0.01 0.02 0.02 0.00 0.00 0.00 0.00 0.00 0.00 0.00 0.00 0.00 0.00 0.00 0.00 0.00 0.00 0.00 0.00 0.00 0.00
0.00 0.00 0.00 0.00 0.00 0.00 0.02 0.00 0.03 0.03 0.07 0.10 0.13 0.10 0.09 0.08 0.07 0.06 0.03 0.02 0.06 0.03 0.01 0.01 0.02 0.00 0.01 0.00 0.00 0.00 0.00 0.00 0.00 0.00 0.00 0.00 0.00 0.00 0.00 0.00 0.00 0.00 0.00
0.00 0.00 0.00 0.00 0.00 0.00 0.00 0.00 0.01 0.04 0.11 0.08 0.10 0.07 0.07 0.06 0.06 0.03 0.02 0.02 0.03 0.03 0.05 0.04 0.01 0.02 0.03 0.01 0.01 0.00 0.00 0.00 0.00 0.00 0.00 0.00 0.00 0.00 0.00 0.01 0.00 0.00 0.00
0.00 0.00 0.00 0.00 0.00 0.00 0.00 0.00 0.00 0.04 0.07 0.09 0.07 0.03 0.03 0.03 0.04 0.04 0.04 0.04 0.04 0.02 0.03 0.00 0.03 0.06 0.03 0.05 0.02 0.02 0.01 0.02 0.00 0.00 0.00 0.00 0.00 0.00 0.00 0.00 0.01 0.02 0.02
0.00 0.00 0.00 0.00 0.00 0.00 0.00 0.00 0.01 0.01 0.03 0.06 0.09 0.04 0.03 0.02 0.00 0.01 0.03 0.09 0.15 0.06 0.02 0.06 0.04 0.10 0.06 0.03 0.04 0.07 0.05 0.05 0.05 0.03 0.01 0.01 0.03 0.04 0.02 0.03 0.06 0.05 0.01
0.00 0.00 0.00 0.00 0.00 0.00 0.00 0.00 0.00 0.02 0.06 0.04 0.01 0.01 0.03 0.01 0.05 0.01 0.03 0.05 0.18 0.10 0.07 0.03 0.06 0.08 0.02 0.02 0.01 0.00 0.02 0.03 0.04 0.05 0.03 0.02 0.06 0.11 0.08 0.11 0.15 0.10 0.03
0.03 0.00 0.00 0.00 0.00 0.00 0.00 0.00 0.00 0.01 0.02 0.01 0.05 0.05 0.05 0.06 0.20 0.04 0.02 0.02 0.03 0.03 0.02 0.00 0.00 0.00 0.03 0.04 0.07 0.06 0.04 0.01 0.00 0.03 0.03 0.01 0.02 0.07 0.04 0.04 0.05 0.01 0.00
0.03 0.02 0.00 0.00 0.00 0.00 0.00 0.00 0.00 0.00 0.02 0.01 0.02 0.02 0.01 0.02 0.09 0.09 0.01 0.00 0.00 0.00 0.01 0.01 0.03 0.01 0.02 0.08 0.07 0.03 0.02 0.01 0.02 0.00 0.01 0.04 0.06 0.06 0.04 0.03 0.01 0.00 0.00
0.00 0.00 0.01 0.00 0.00 0.00 0.00 0.00 0.00 0.01 0.03 0.01 0.00 0.01 0.04 0.10 0.16 0.03 0.00 0.00 0.00 0.00 0.00 0.02 0.06 0.03 0.07 0.05 0.01 0.01 0.00 0.00 0.00 0.00 0.00 0.00 0.00 0.00 0.00 0.00 0.00 0.00 0.00
0.00 0.00 0.00 0.01 0.00 0.00 0.00 0.00 0.00 0.01 0.02 0.03 0.01 0.01 0.04 0.05 0.03 0.00 0.00 0.00 0.02 0.01 0.02 0.02 0.02 0.01 0.02 0.00 0.00 0.00 0.00 0.00 0.00 0.01 0.01 0.01 0.00 0.00 0.00 0.00 0.00 0.00 0.00
0.00 0.01 0.01 0.01 0.00 0.03 0.00 0.00 0.01 0.02 0.01 0.02 0.04 0.06 0.02 0.00 0.02 0.02 0.02 0.03 0.05 0.04 0.01 0.00 0.01 0.00 0.00 0.00 0.00 0.00 0.00 0.00 0.00 0.00 0.00 0.00 0.00 0.00 0.00 0.00 0.00 0.01 0.02
0.07 0.06 0.03 0.01 0.00 0.01 0.00 0.02 0.16 0.13 0.06 0.01 0.04 0.04 0.01 0.00 0.03 0.04 0.03 0.01 0.02 0.00 0.00 0.00 0.00 0.00 0.00 0.00 0.00 0.00 0.00 0.00 0.00 0.00 0.00 0.00 0.00 0.00 0.00 0.00 0.00 0.02 0.02
0.13 0.08 0.06 0.07 0.01 0.01 0.02 0.02 0.04 0.04 0.08 0.09 0.04 0.05 0.01 0.02 0.01 0.02 0.00 0.00 0.00 0.00 0.00 0.00 0.00 0.00 0.00 0.00 0.00 0.00 0.00 0.00 0.00 0.00 0.00 0.00 0.00 0.00 0.00 0.00 0.00 0.00 0.01
0.25 0.23 0.16 0.11 0.08 0.08 0.07 0.03 0.02 0.01 0.00 0.02 0.06 0.05 0.02 0.02 0.04 0.00 0.00 0.00 0.00 0.00 0.00 0.00 0.00 0.00 0.00 0.00 0.00 0.00 0.00 0.00 0.00 0.00 0.00 0.00 0.00 0.00 0.00 0.00 0.00 0.00 0.02
0.34 0.31 0.16 0.08 0.12 0.10 0.06 0.05 0.01 0.00 0.00 0.00 0.00 0.00 0.00 0.02 0.02 0.00 0.00 0.00 0.00 0.00 0.00 0.00 0.00 0.00 0.00 0.00 0.00 0.00 0.00 0.00 0.00 0.00 0.00 0.00 0.00 0.00 0.00 0.00 0.00 0.00 0.00
0.32 0.24 0.08 0.09 0.07 0.05 0.06 0.06 0.06 0.02 0.01 0.00 0.05 0.02 0.00 0.00 0.00 0.00 0.00 0.00 0.00 0.00 0.00 0.00 0.00 0.00 0.00 0.00 0.00 0.00 0.00 0.00 0.00 0.00 0.00 0.00 0.00 0.01 0.01 0.00 0.01 0.02 0.03
0.56 0.54 0.39 0.33 0.16 0.06 0.03 0.02 0.04 0.06 0.06 0.03 0.04 0.03 0.01 0.00 0.00 0.00 0.00 0.00 0.00 0.00 0.00 0.00 0.00 0.00 0.00 0.00 0.00 0.00 0.00 0.00 0.00 0.00 0.01 0.01 0.01 0.01 0.01 0.01 0.01 0.01 0.02
0.28 0.54 0.57 0.45 0.31 0.20 0.08 0.03 0.01 0.05 0.05 0.02 0.00 0.00 0.00 0.00 0.00 0.00 0.00 0.00 0.00 0.00 0.00 0.00 0.00 0.00 0.00 0.00 0.00 0.00 0.00 0.00 0.00 0.00 0.00 0.00 0.00 0.00 0.01 0.01 0.01 0.01 0.01
0.08 0.14 0.30 0.27 0.19 0.33 0.24 0.11 0.01 0.02 0.02 0.01 0.00 0.00 0.00 0.00 0.00 0.00 0.00 0.00 0.00 0.00 0.00 0.00 0.00 0.00 0.00 0.00 0.00 0.00 0.00 0.01 0.00 0.01 0.00 0.00 0.00 0.00 0.00 0.00 0.00 0.00 0.00
0.00 0.01 0.08 0.11 0.18 0.24 0.27 0.24 0.06 0.06 0.01 0.00 0.00 0.00 0.00 0.00 0.00 0.00 0.00 0.00 0.00 0.00 0.00 0.00 0.00 0.00 0.00 0.00 0.00 0.00 0.00 0.00 0.00 0.00 0.00 0.00 0.00 0.00 0.00 0.00 0.00 0.00 0.00
0.00 0.03 0.03 0.10 0.09 0.05 0.06 0.07 0.10 0.10 0.03 0.00 0.00 0.00 0.00 0.00 0.00 0.00 0.00 0.00 0.00 0.00 0.00 0.00 0.00 0.00 0.00 0.00 0.00 0.00 0.00 0.00 0.00 0.00 0.00 0.00 0.00 0.00 0.00 0.00 0.00 0.00 0.00
0.01 0.08 0.02 0.04 0.09 0.12 0.12 0.09 0.07 0.03 0.00 0.00 0.00 0.00 0.00 0.00 0.00 0.00 0.00 0.00 0.00 0.00 0.00 0.00 0.00 0.00 0.00 0.00 0.00 0.00 0.00 0.00 0.00 0.00 0.00 0.00 0.00 0.00 0.00 0.00 0.00 0.00 0.00
0.01 0.07 0.11 0.11 0.06 0.17 0.11 0.05 0.02 0.01 0.02 0.02 0.00 0.00 0.00 0.00 0.00 0.00 0.00 0.00 0.00 0.00 0.00 0.00 0.00 0.00 0.00 0.00 0.00 0.00 0.00 0.00 0.00 0.00 0.00 0.00 0.00 0.00 0.00 0.00 0.00 0.00 0.00
0.06 0.13 0.08 0.05 0.00 0.01 0.01 0.02 0.01 0.04 0.02 0.00 0.00 0.00 0.00 0.00 0.00 0.00 0.00 0.00 0.00 0.00 0.00 0.00 0.00 0.00 0.00 0.00 0.00 0.00 0.00 0.00 0.00 0.00 0.00 0.00 0.00 0.00 0.00 0.00 0.00 0.00 0.00
0.05 0.15 0.16 0.06 0.04 0.00 0.00 0.00 0.00 0.00 0.00 0.00 0.00 0.00 0.00 0.00 0.00 0.00 0.00 0.00 0.00 0.00 0.00 0.00 0.00 0.00 0.00 0.00 0.00 0.00 0.00 0.00 0.00 0.00 0.00 0.00 0.00 0.00 0.00 0.00 0.00 0.00 0.00
0.01 0.07 0.12 0.15 0.08 0.03 0.00 0.00 0.00 0.00 0.00 0.00 0.00 0.00 0.00 0.00 0.00 0.00 0.00 0.00 0.00 0.00 0.00 0.00 0.00 0.00 0.00 0.00 0.00 0.00 0.00 0.00 0.00 0.00 0.00 0.00 0.00 0.00 0.00 0.00 0.00 0.00 0.00
MSLP
1007.85 1008.38 1009.06 1009.76 1010.38 1010.94 1011.27 1011.70 1011.90 1012.22 1012.56 1013.02 1013.62 1013.68 1013.91 1014.13 1014.22 1014.47 1014.33 1014.43 1014.51 1014.55 1014.73 1014.84 1014.81 1014.63 1014.56 1014.70 1014.87 1014.70 1014.66 1014.81 1015.02 1014.81 1014.61 1014.80 1014.48 1014.40 1014.40 1014.20 1014.20 1014.28 1014.35
1007.55 1008.06 1008.66 1009.15 1009.77 1010.27 1010.96 1011.44 1011.96 1011.93 1012.47 1013.12 1014.25 1013.76 1013.76 1013.84 1014.21 1014.22 1014.01 1013.83 1014.34 1014.27 1014.23 1014.33 1014.69 1014.41 1014.41 1014.47 1014.67 1014.70 1014.63 1014.63 1014.93 1015.11 1014.84 1014.58 1014.44 1014.41 1014.09 1014.02 1013.83 1013.64 1013.64
1007.23 1007.79 1008.34 1008.82 1009.15 1009.56 1010.25 1010.78 1011.51 1011.63 1012.33 1013.34 1013.97 1013.23 1013.49 1013.59 1013.78 1013.63 1013.73 1013.89 1014.00 1013.94 1014.17 1014.31 1014.40 1014.33 1014.51 1014.48 1014.47 1014.54 1014.49 1014.65 1014.92 1015.23 1015.22 1014.91 1014.97 1014.17 1014.03 1013.69 1013.52 1013.38 1013.35
1006.67 1007.30 1007.90 1008.47 1008.80 1008.90 1009.53 1010.29 1010.82 1011.24 1011.91 1012.53 1012.75 1012.95 1013.02 1013.26 1013.25 1013.43 1013.30 1013.40 1013.54 1013.63 1013.69 1013.71 1013.72 1014.16 1014.07 1014.31 1014.32 1014.42 1014.49 1014.70 1014.78 1014.86 1014.91 1014.58 1014.39 1013.83 1014.03 1013.83 1013.86 1014.03 1014.02
1006.16 1006.89 1007.48 1008.03 1008.55 1008.85 1009.00 1009.57 1010.07 1010.60 1011.39 1012.03 1012.41 1012.52 1012.57 1012.50 1012.53 1012.56 1012.64 1013.16 1013.35 1013.66 1013.67 1013.65 1013.62 1014.09 1013.66 1014.03 1013.97 1014.34 1014.56 1014.72 1014.90 1015.05 1015.00 1014.61 1014.53 1014.53 1014.50 1014.04 1014.07 1014.58 1013.84
1005.66 1006.59 1007.28 1007.64 1008.22 1008.69 1008.79 1009.13 1009.54 1009.99 1010.51 1011.04 1011.32 1011.49 1011.64 1011.95 1012.04 1011.84 1012.23 1012.66 1013.07 1013.41 1013.72 1013.42 1013.50 1013.36 1013.50 1013.52 1013.69 1013.91 1014.08 1014.39 1014.65 1014.91 1014.80 1014.73 1014.42 1014.31 1014.07 1013.89 1013.85 1014.24 1014.00
1005.37 1006.11 1006.96 1007.61 1007.96 1008.27 1008.50 1008.85 1009.18 1009.62 1010.14 1010.47 1010.84 1011.01 1011.31 1011.60 1012.06 1012.30 1012.47 1012.48 1012.65 1012.82 1013.27 1013.28 1013.35 1013.26 1013.22 1013.28 1013.54 1013.73 1013.98 1014.04 1014.14 1014.30 1014.41 1014.23 1014.14 1013.97 1014.04 1013.95 1013.72 1013.51 1012.94
1004.95 1005.73 1006.42 1007.08 1007.64 1008.10 1008.50 1008.64 1009.01 1009.35 1009.80 1010.21 1010.53 1010.78 1011.06 1011.31 1011.75 1012.32 1012.56 1012.70 1012.65 1012.72 1012.88 1012.87 1013.08 1013.17 1013.15 1013.22 1013.35 1013.54 1013.49 1013.38 1013.33 1013.51 1013.61 1013.43 1013.43 1013.68 1013.86 1013.92 1013.84 1013.47 1012.90
1004.34 1005.07 1005.72 1006.39 1007.16 1007.58 1008.02 1008.49 1008.79 1009.06 1009.49 1009.94 1010.24 1010.50 1010.74 1011.03 1011.73 1012.16 1012.41 1012.63 1012.61 1012.46 1012.50 1012.55 1012.64 1012.75 1012.82 1012.97 1013.17 1013.32 1013.26 1012.97 1012.29 1012.50 1012.58 1012.73 1012.92 1013.23 1013.37 1013.68 1013.52 1013.33 1012.74
1003.50 1004.33 1005.07 1005.74 1006.28 1006.57 1006.66 1006.90 1007.77 1008.43 1008.76 1009.29 1009.69 1009.95 1010.32 1010.87 1011.47 1011.84 1012.17 1012.43 1012.25 1012.02 1011.90 1012.04 1012.08 1012.35 1012.63 1012.79 1012.95 1012.97 1013.05 1012.94 1012.84 1012.77 1012.89 1013.10 1012.96 1012.67 1012.70 1012.87 1012.80 1012.84 1012.50
1003.11 1003.69 1004.43 1004.93 1005.32 1005.61 1006.26 1006.64 1007.07 1007.82 1008.26 1008.67 1008.92 1009.40 1009.88 1010.39 1010.96 1011.41 1011.72 1012.00 1012.03 1011.88 1011.76 1011.50 1011.65 1011.99 1012.62 1013.01 1013.09 1013.08 1013.16 1013.25 1012.96 1012.80 1012.54 1012.35 1012.06 1011.82 1011.73 1011.62 1011.71 1011.87 1011.91
1002.61 1003.12 1003.58 1004.00 1004.43 1004.91 1005.49 1006.07 1006.69 1007.28 1007.68 1008.34 1008.76 1009.29 1009.65 1010.03 1010.31 1010.90 1011.34 1011.58 1011.65 1011.55 1011.44 1011.81 1012.41 1012.49 1012.59 1012.90 1013.06 1013.09 1013.05 1013.02 1012.86 1012.61 1012.40 1012.17 1011.95 1011.56 1010.98 1010.86 1010.79 1010.98 1011.08
1002.48 1002.56 1002.91 1003.41 1003.83 1004.26 1004.93 1005.44 1006.11 1006.70 1007.12 1007.63 1008.19 1008.96 1008.90 1009.22 1009.81 1010.33 1010.79 1011.16 1011.46 1011.73 1011.71 1011.90 1012.19 1012.32 1012.49 1012.72 1012.65 1012.65 1012.70 1012.72 1012.61 1012.44 1012.22 1011.94 1011.66 1011.35 1011.03 1010.76 1010.47 1010.36 1010.58
1002.57 1002.87 1003.08 1003.37 1003.75 1003.96 1004.59 1005.21 1005.62 1006.13 1006.57 1007.27 1007.76 1007.93 1008.10 1008.41 1009.01 1010.09 1010.58 1011.10 1011.20 1011.54 1011.66 1011.90 1011.86 1012.01 1011.98 1011.76 1011.90 1012.04 1012.36 1012.30 1012.10 1011.83 1011.57 1011.47 1011.40 1011.33 1011.26 1011.13 1011.20 1011.07 1010.99
1002.27 1002.30 1002.43 1002.82 1003.25 1003.71 1004.46 1005.11 1005.36 1005.42 1005.76 1006.22 1006.76 1007.22 1007.53 1007.93 1008.29 1008.78 1009.38 1009.99 1010.42 1010.64 1010.81 1010.93 1011.23 1011.34 1011.30 1011.20 1011.18 1011.24 1011.55 1011.84 1011.90 1011.71 1011.63 1011.62 1011.70 1011.73 1011.66 1011.40 1011.37 1011.34 1011.17
1002.12 1001.75 1001.71 1002.13 1002.69 1003.27 1004.21 1005.13 1006.07 1006.24 1006.20 1006.12 1006.15 1006.48 1007.51 1007.48 1007.80 1008.20 1008.68 1008.98 1009.55 1009.99 1010.33 1010.42 1010.62 1010.51 1010.41 1010.27 1010.34 1010.72 1011.09 1011.43 1011.70 1011.61 1011.61 1011.66 1011.70 1011.80 1011.69 1011.46 1011.43 1011.40 1011.34
1003.28 1003.04 1003.23 1002.83 1002.21 1002.52 1003.13 1004.21 1005.87 1007.18 1007.37 1007.33 1006.94 1006.77 1006.89 1007.67 1008.28 1008.19 1008.62 1009.02 1009.42 1009.82 1009.96 1009.95 1010.05 1009.98 1009.84 1009.88 1010.25 1010.83 1011.30 1011.60 1011.66 1011.57 1011.75 1011.84 1011.88 1011.80 1011.75 1011.53 1011.41 1011.35 1011.31
1003.42 1003.20 1003.13 1003.52 1003.79 1004.16 1002.81 1003.32 1004.11 1005.74 1006.93 1007.36 1007.72 1007.50 1007.75 1008.09 1008.30 1008.28 1008.68 1008.86 1009.57 1009.74 1009.62 1009.41 1009.28 1009.19 1009.25 1009.65 1010.09 1010.59 1011.02 1011.28 1011.63 1011.65 1011.71 1012.00 1012.00 1012.01 1011.90 1011.74 1011.69 1011.83 1011.92
1002.29 1002.66 1001.58 1002.59 1003.39 1005.84 1004.38 1002.64 1002.82 1003.85 1005.10 1006.22 1007.73 1007.99 1008.48 1008.58 1008.70 1008.93 1009.05 1008.65 1008.52 1008.43 1008.57 1008.64 1008.47 1008.61 1009.14 1009.62 1010.06 1010.47 1010.78 1011.08 1011.45 1011.60 1011.71 1011.92 1012.01 1012.15 1012.16 1012.17 1012.18 1012.27 1012.41
1001.59 1000.86 999.92 1000.93 1003.00 1003.89 1003.77 1002.49 1001.53 1002.50 1003.42 1004.19 1005.28 1006.18 1007.56 1008.17 1008.22 1008.33 1008.34 1008.16 1007.82 1007.69 1007.68 1007.75 1007.93 1008.43 1009.01 1009.52 1009.96 1010.35 1010.70 1011.07 1011.23 1011.47 1011.73 1011.92 1012.06 1012.23 1012.36 1012.39 1012.45 1012.66 1012.70
1001.92 1000.94 1000.86 1001.76 1004.11 1003.65 1001.62 1002.38 1001.58 1002.21 1002.58 1002.85 1003.69 1004.37 1005.15 1005.71 1006.44 1006.76 1006.97 1007.19 1006.95 1006.90 1007.13 1007.41 1008.03 1008.48 1008.92 1009.28 1009.79 1010.25 1010.65 1011.03 1011.12 1011.42 1011.64 1011.82 1011.88 1012.14 1012.19 1012.38 1012.64 1012.79 1012.92
1002.08 1002.14 1002.40 1003.48 1002.58 1000.92 1003.29 1003.75 1003.45 1001.17 1001.04 1001.46 1002.78 1004.08 1004.16 1004.55 1005.07 1005.14 1005.42 1005.50 1005.72 1006.27 1006.77 1007.29 1007.78 1008.21 1008.44 1008.84 1009.39 1009.92 1010.53 1010.84 1011.02 1011.16 1011.36 1011.62 1011.76 1012.01 1012.17 1012.38 1012.54 1012.76 1012.86
1002.16 1002.60 1002.52 1002.54 1002.35 1003.17 1003.44 1002.80 1002.62 999.84 1000.91 1001.90 1002.35 1003.27 1004.03 1004.02 1004.14 1004.02 1004.37 1004.59 1005.12 1005.84 1006.59 1007.15 1007.66 1008.05 1008.15 1008.35 1008.81 1009.53 1010.08 1010.25 1010.48 1010.72 1010.98 1011.23 1011.56 1011.84 1012.01 1012.15 1012.27 1012.31 1012.25
1001.26 1001.51 1001.90 1002.20 1001.89 1001.92 1002.02 1001.72 1001.97 1000.36 1001.15 1001.84 1001.68 1002.10 1002.87 1003.58 1003.56 1003.46 1003.66 1004.23 1004.86 1005.64 1006.31 1006.73 1007.35 1007.68 1007.96 1008.38 1008.47 1008.76 1009.20 1009.76 1010.17 1010.45 1010.60 1010.90 1011.14 1011.45 1011.56 1011.55 1011.53 1011.67 1011.75
1000.14 1000.50 1000.93 1001.00 1001.46 1001.60 1001.47 1001.42 1000.42 999.86 999.87 1000.02 1000.63 1001.57 1002.54 1003.05 1003.01 1002.88 1003.37 1003.94 1004.58 1005.28 1005.83 1006.33 1006.88 1007.30 1007.77 1008.35 1008.61 1008.96 1009.39 1009.61 1009.75 1010.35 1010.32 1010.47 1010.58 1010.85 1010.91 1010.91 1010.88 1010.94 1011.07
999.45 999.58 1000.35 1000.65 1001.33 1001.92 1001.54 1000.79 1000.30 1000.17 1000.02 1000.42 1000.81 1001.50 1001.87 1002.35 1002.37 1002.51 1003.03 1003.74 1004.48 1005.06 1005.61 1006.01 1006.45 1006.94 1007.34 1007.96 1008.42 1009.20 1009.74 1009.92 1009.89 1010.25 1010.37 1010.21 1010.35 1010.39 1010.40 1010.44 1010.25 1010.24 1010.57
Thickness
5796 5792 5786 5781 5776 5773 5773 5771 5771 5772 5772 5771 5769 5772 5775 5774 5775 5775 5777 5779 5781 5781 5781 5780 5782 5785 5786 5786 5785 5787 5785 5782 5774 5784 5789 5793 5795 5793 5794 5795 5796 5796 5796
5795 5791 5787 5784 5781 5777 5774 5772 5769 5774 5772 5765 5760 5766 5772 5775 5774 5775 5776 5781 5777 5779 5782 5782 5778 5784 5785 5786 5784 5783 5784 5785 5779 5773 5782 5786 5789 5792 5793 5794 5796 5797 5798
5797 5791 5787 5784 5783 5782 5779 5778 5771 5775 5771 5762 5758 5769 5771 5773 5773 5778 5778 5776 5777 5779 5779 5778 5778 5781 5780 5782 5783 5782 5783 5783 5781 5775 5773 5780 5780 5789 5790 5794 5795 5796 5795
5800 5793 5787 5784 5784 5786 5784 5780 5776 5774 5771 5770 5771 5771 5772 5771 5775 5776 5778 5777 5778 5778 5779 5781 5782 5778 5780 5779 5780 5780 5780 5778 5777 5775 5774 5776 5780 5786 5785 5784 5783 5783 5777
5800 5793 5789 5786 5784 5783 5784 5782 5781 5779 5773 5769 5768 5769 5772 5776 5778 5779 5780 5776 5774 5772 5774 5776 5778 5775 5781 5779 5779 5776 5775 5773 5770 5767 5767 5771 5770 5769 5769 5777 5773 5765 5770
5800 5792 5788 5784 5781 5779 5782 5781 5780 5779 5778 5776 5774 5774 5775 5775 5777 5780 5779 5775 5772 5769 5767 5771 5773 5775 5776 5776 5775 5775 5774 5769 5765 5763 5763 5761 5763 5765 5769 5770 5768 5761 5756
5798 5793 5786 5780 5777 5777 5780 5779 5778 5776 5776 5774 5773 5773 5772 5773 5770 5770 5770 5772 5770 5769 5767 5767 5768 5771 5772 5774 5771 5769 5766 5767 5766 5765 5761 5760 5760 5761 5761 5758 5760 5764 5767
5797 5791 5787 5781 5776 5774 5773 5775 5774 5775 5772 5770 5770 5770 5770 5771 5768 5765 5765 5764 5765 5765 5764 5765 5765 5765 5768 5768 5767 5764 5765 5767 5766 5766 5764 5764 5763 5760 5755 5752 5753 5757 5763
5797 5792 5789 5784 5776 5774 5771 5770 5770 5770 5770 5769 5769 5769 5769 5769 5762 5759 5760 5759 5758 5758 5759 5761 5763 5763 5765 5764 5764 5760 5761 5763 5769 5770 5767 5764 5762 5759 5756 5752 5748 5748 5749
5800 5795 5792 5787 5781 5778 5780 5779 5774 5771 5770 5769 5768 5769 5767 5764 5759 5757 5755 5754 5754 5756 5757 5757 5758 5759 5758 5759 5761 5760 5756 5758 5760 5762 5760 5758 5758 5758 5757 5753 5751 5743 5744
5801 5797 5792 5789 5786 5785 5781 5778 5774 5769 5769 5766 5766 5765 5764 5763 5759 5756 5753 5753 5751 5752 5753 5758 5759 5756 5754 5754 5755 5757 5755 5753 5755 5756 5757 5757 5759 5760 5759 5758 5755 5751 5746
5797 5795 5794 5792 5789 5787 5782 5777 5772 5767 5764 5762 5760 5758 5759 5759 5758 5754 5750 5748 5750 5754 5756 5756 5750 5750 5751 5750 5751 5752 5751 5750 5751 5751 5751 5750 5752 5756 5760 5761 5759 5754 5751
5788 5790 5792 5791 5788 5787 5780 5776 5771 5766 5762 5759 5758 5753 5758 5758 5757 5752 5750 5749 5749 5751 5754 5752 5749 5748 5748 5747 5748 5748 5747 5748 5747 5746 5746 5747 5751 5754 5756 5755 5754 5752 5748
5776 5776 5778 5781 5780 5782 5778 5775 5771 5765 5761 5756 5754 5755 5758 5761 5761 5755 5754 5749 5749 5748 5748 5747 5748 5748 5750 5753 5750 5748 5746 5747 5747 5747 5747 5748 5749 5747 5745 5744 5739 5738 5736
5769 5773 5776 5779 5777 5775 5773 5771 5769 5768 5765 5761 5759 5760 5760 5760 5765 5765 5761 5758 5755 5753 5751 5750 5748 5748 5748 5750 5751 5752 5749 5746 5743 5743 5742 5740 5738 5737 5735 5736 5733 5730 5727
5762 5769 5774 5775 5774 5772 5767 5762 5751 5751 5750 5755 5761 5765 5760 5761 5761 5762 5759 5758 5754 5752 5750 5747 5746 5749 5751 5753 5753 5749 5746 5743 5740 5739 5737 5736 5732 5730 5728 5728 5725 5722 5718
5738 5744 5747 5756 5765 5768 5766 5761 5749 5738 5736 5740 5746 5754 5760 5757 5752 5755 5754 5751 5749 5749 5747 5747 5745 5748 5751 5753 5749 5742 5737 5736 5735 5733 5729 5727 5726 5725 5722 5722 5719 5716 5712
5727 5730 5734 5736 5737 5740 5760 5761 5761 5748 5741 5743 5741 5748 5744 5745 5746 5748 5746 5749 5745 5743 5746 5746 5747 5750 5752 5748 5745 5740 5736 5733 5729 5727 5724 5720 5718 5717 5715 5714 5711 5705 5702
5726 5725 5730 5727 5729 5706 5729 5755 5764 5758 5752 5748 5737 5738 5733 5734 5737 5738 5738 5748 5747 5748 5748 5748 5751 5751 5747 5743 5739 5735 5732 5729 5724 5720 5717 5713 5711 5708 5705 5703 5699 5693 5689
5726 5737 5747 5730 5705 5695 5709 5739 5754 5755 5756 5757 5750 5748 5737 5736 5741 5741 5742 5742 5745 5748 5749 5750 5749 5746 5742 5737 5733 5730 5726 5721 5717 5713 5709 5705 5702 5698 5695 5692 5689 5683 5680
5723 5733 5732 5722 5692 5700 5703 5720 5707 5744 5748 5757 5754 5756 5750 5751 5746 5745 5744 5741 5744 5747 5746 5746 5742 5738 5735 5732 5728 5723 5718 5713 5710 5706 5702 5699 5696 5690 5687 5683 5677 5673 5668
5714 5714 5713 5701 5702 5692 5694 5705 5713 5743 5756 5760 5754 5742 5743 5751 5749 5750 5748 5749 5748 5745 5743 5739 5736 5734 5733 5729 5723 5717 5710 5705 5702 5699 5695 5691 5688 5683 5679 5674 5669 5664 5660
5710 5704 5703 5704 5705 5700 5701 5713 5714 5752 5745 5744 5748 5740 5738 5744 5746 5750 5748 5749 5746 5742 5737 5733 5729 5727 5728 5726 5720 5711 5704 5701 5698 5694 5689 5685 5680 5675 5671 5666 5661 5658 5656
5715 5715 5710 5705 5714 5715 5710 5715 5715 5732 5735 5736 5743 5743 5742 5740 5742 5745 5746 5744 5740 5735 5731 5729 5724 5722 5719 5714 5712 5707 5702 5696 5690 5686 5683 5678 5673 5667 5663 5661 5659 5654 5650
5721 5719 5714 5715 5712 5714 5714 5715 5732 5739 5742 5743 5749 5741 5738 5737 5740 5743 5742 5740 5735 5730 5728 5725 5720 5716 5710 5705 5700 5696 5692 5686 5683 5678 5674 5670 5667 5661 5657 5654 5652 5649 5645
5722 5724 5716 5714 5703 5699 5708 5712 5718 5724 5728 5731 5736 5736 5735 5734 5736 5737 5735 5731 5726 5723 5720 5718 5714 5708 5704 5696 5689 5684 5679 5676 5674 5669 5664 5662 5658 5654 5651 5648 5647 5643 5637